Weather History for KPEX - January, 2014

Change the Weather History Date:

Wednesday, January 8, 2014

  Actual Average (KLJF) Record (KLJF)
Temperature  
Mean Temperature -10 °F -  
Max Temperature -1 °F 18 °F 53 °F (2003)
Min Temperature -20 °F -2 °F -24 °F (1966)
Degree Days  
Heating Degree Days 76    
Moisture  
Dew Point -16 °F    
Average Humidity 75    
Maximum Humidity 82    
Minimum Humidity 66    
Precipitation  
Precipitation 0.00 in - - ()
Sea Level Pressure  
Sea Level Pressure 30.36 in    
Wind  
Wind Speed 2 mph (SSW)    
Max Wind Speed 10 mph    
Max Gust Speed -    
Visibility 10 miles    
Events      
Averages and records for this station are not official NWS values.
T = Trace of Precipitation, MM = Missing Value Source: NWS Daily Summary

Daily Weather History Graph

Daily Weather History Graph

Search for Another Location

Airport or City:

Trip Planner

Search our weather history database for the weather conditions in past years. The results will help you decide how hot, cold, wet, or windy it might be!

Date:

Astronomy

Jan. 08, 2014 Rise Set
Actual Time 7:57 AM CST 4:54 PM CST
Civil Twilight 7:24 AM CST 5:27 PM CST
Nautical Twilight 6:47 AM CST 6:04 PM CST
Astronomical Twilight 6:11 AM CST 6:40 PM CST
Moon 11:56 AM CST (1/8) 12:53 AM CST (1/8)
Length of Visible Light 10h 03m
Length of Day
8h 56m
First Quarter, 56% of the Moon is Illuminated
Jan 8
First Quarter
Jan 15
Full
Jan 23
Last Quarter
Jan 30
New
Feb 6
First Quarter

Hourly Weather History & Observations

Time (CST) Temp. Windchill Dew Point Humidity Pressure Visibility Wind Dir Wind Speed Gust Speed Precip Events Conditions
12:12 AM -8.5 °F -19.8 °F -14.6 °F 75% 30.24 in 10.0 mi WNW 4.6 mph - N/A   Clear
12:32 AM -8.9 °F -22.1 °F -15.2 °F 74% 30.24 in 10.0 mi NW 5.8 mph - N/A   Clear
12:52 AM -9.4 °F - -15.7 °F 74% 30.25 in 10.0 mi Calm Calm - N/A   Clear
1:13 AM -9.6 °F -24.5 °F -15.7 °F 74% 30.25 in 10.0 mi WNW 6.9 mph - N/A   Clear
1:32 AM -9.8 °F -23.1 °F -15.9 °F 74% 30.26 in 10.0 mi WNW 5.8 mph - N/A   Clear
1:52 AM -10.3 °F -21.9 °F -16.1 °F 76% 30.27 in 10.0 mi WNW 4.6 mph - N/A   Clear
2:12 AM -10.8 °F -20.2 °F -16.8 °F 75% 30.28 in 10.0 mi WNW 3.5 mph - N/A   Clear
2:32 AM -11.2 °F - -17.1 °F 75% 30.29 in 10.0 mi Calm Calm - N/A   Scattered Clouds
2:52 AM -11.4 °F - -17.1 °F 76% 30.29 in 10.0 mi Calm Calm - N/A   Clear
3:13 AM -13.5 °F - -19.3 °F 75% 30.29 in 10.0 mi Calm Calm - N/A   Clear
3:32 AM -15.2 °F - -20.6 °F 77% 30.30 in 10.0 mi Calm Calm - N/A   Clear
3:52 AM -14.1 °F - -19.3 °F 77% 30.30 in 10.0 mi Calm Calm - N/A   Clear
4:13 AM -15.5 °F - -20.6 °F 78% 30.30 in 10.0 mi Calm Calm - N/A   Clear
4:32 AM -15.3 °F - -20.2 °F 79% 30.30 in 10.0 mi Calm Calm - N/A   Clear
4:52 AM -17.7 °F - -23.3 °F 76% 30.31 in 10.0 mi Calm Calm - N/A   Clear
5:12 AM -18.0 °F - -23.3 °F 77% 30.31 in 10.0 mi Calm Calm - N/A   Clear
5:32 AM -17.9 °F - -22.9 °F 78% 30.32 in 10.0 mi Calm Calm - N/A   Clear
5:52 AM -17.0 °F - -22.7 °F 75% 30.32 in 10.0 mi Calm Calm - N/A   Clear
6:13 AM -18.9 °F - -24.3 °F 76% 30.33 in 10.0 mi Calm Calm - N/A   Clear
6:32 AM -19.3 °F - -25.1 °F 75% 30.33 in 10.0 mi Calm Calm - N/A   Clear
6:52 AM -19.1 °F - -24.5 °F 76% 30.33 in 10.0 mi Calm Calm - N/A   Clear
7:13 AM -20.6 °F - -26.3 °F 75% 30.33 in 10.0 mi Calm Calm - N/A   Clear
7:32 AM -19.3 °F - -25.1 °F 75% 30.34 in 10.0 mi Calm Calm - N/A   Clear
7:53 AM -19.1 °F - -24.7 °F 76% 30.36 in 10.0 mi Calm Calm - N/A   Clear
8:12 AM -19.5 °F - -24.9 °F 76% 30.37 in 10.0 mi Calm Calm - N/A   Clear
8:32 AM -20.0 °F - -26.1 °F 73% 30.38 in 10.0 mi Calm Calm - N/A   Clear
8:53 AM -19.7 °F - -25.4 °F 75% 30.40 in 10.0 mi Calm Calm - N/A   Clear
9:12 AM -16.2 °F - -21.5 °F 77% 30.40 in 10.0 mi Calm Calm - N/A   Clear
9:32 AM -13.7 °F - -18.9 °F 77% 30.41 in 10.0 mi Calm Calm - N/A   Clear
9:52 AM -11.0 °F - -16.1 °F 78% 30.42 in 10.0 mi Calm Calm - N/A   Clear
10:12 AM -9.6 °F - -15.0 °F 77% 30.43 in 10.0 mi Calm Calm - N/A   Clear
10:32 AM -8.5 °F - -14.6 °F 75% 30.43 in 10.0 mi Calm Calm - N/A   Clear
10:52 AM -8.0 °F - -14.1 °F 75% 30.43 in 10.0 mi Calm Calm - N/A   Clear
11:12 AM -7.2 °F - -14.1 °F 72% 30.43 in 10.0 mi Calm Calm - N/A   Clear
11:32 AM -6.7 °F - -13.4 °F 73% 30.42 in 10.0 mi Calm Calm - N/A   Clear
11:53 AM -5.8 °F - -12.8 °F 72% 30.42 in 10.0 mi Calm Calm - N/A   Clear
12:12 PM -4.9 °F - -12.1 °F 71% 30.41 in 10.0 mi Calm Calm - N/A   Clear
12:33 PM -4.4 °F - -11.6 °F 71% 30.41 in 10.0 mi Calm Calm - N/A   Clear
12:52 PM -3.8 °F - -11.7 °F 69% 30.41 in 10.0 mi Calm Calm - N/A   Clear
1:12 PM -3.3 °F - -11.4 °F 68% 30.41 in 10.0 mi Calm Calm - N/A   Clear
1:33 PM -2.7 °F - -11.4 °F 67% 30.40 in 10.0 mi Calm Calm - N/A   Clear
1:52 PM -2.4 °F - -11.2 °F 66% 30.40 in 10.0 mi Calm Calm - N/A   Clear
2:13 PM -2.0 °F - -11.0 °F 66% 30.40 in 10.0 mi Calm Calm - N/A   Clear
2:32 PM -1.3 °F - -10.3 °F 66% 30.40 in 10.0 mi Calm Calm - N/A   Clear
2:52 PM -1.3 °F - -10.3 °F 66% 30.41 in 10.0 mi Calm Calm - N/A   Clear
3:13 PM -1.3 °F - -10.3 °F 66% 30.40 in 10.0 mi Calm Calm - N/A   Clear
3:32 PM -1.3 °F - -10.3 °F 66% 30.42 in 10.0 mi Calm Calm - N/A   Clear
3:52 PM -1.5 °F - -10.3 °F 66% 30.41 in 10.0 mi Calm Calm - N/A   Clear
4:12 PM -1.7 °F - -10.3 °F 67% 30.41 in 10.0 mi Calm Calm - N/A   Clear
4:32 PM -2.4 °F - -10.3 °F 69% 30.41 in 10.0 mi Calm Calm - N/A   Clear
4:52 PM -3.5 °F - -11.0 °F 70% 30.41 in 10.0 mi Calm Calm - N/A   Clear
5:12 PM -4.4 °F - -11.2 °F 72% 30.41 in 10.0 mi Calm Calm - N/A   Clear
5:33 PM -5.1 °F - -11.4 °F 74% 30.40 in 10.0 mi Calm Calm - N/A   Clear
5:52 PM -5.8 °F - -11.7 °F 75% 30.40 in 10.0 mi Calm Calm - N/A   Clear
6:12 PM -6.5 °F - -12.3 °F 76% 30.40 in 10.0 mi Calm Calm - N/A   Clear
6:33 PM -9.4 °F - -14.4 °F 78% 30.40 in 10.0 mi Calm Calm - N/A   Clear
6:53 PM -10.5 °F - -15.0 °F 80% 30.40 in 10.0 mi Calm Calm - N/A   Clear
7:12 PM -10.8 °F - -15.7 °F 79% 30.40 in 10.0 mi Calm Calm - N/A   Clear
7:32 PM -11.2 °F - -15.7 °F 80% 30.38 in 7.0 mi Calm Calm - N/A   Clear
7:52 PM -11.7 °F - -16.4 °F 80% 30.38 in 10.0 mi Calm Calm - N/A   Clear
8:12 PM -9.2 °F - -13.5 °F 81% 30.38 in 10.0 mi Calm Calm - N/A   Clear
8:32 PM -9.8 °F - -14.3 °F 81% 30.38 in 10.0 mi Calm Calm - N/A   Clear
8:52 PM -7.6 °F -18.8 °F -11.7 °F 82% 30.38 in 10.0 mi South 4.6 mph - N/A   Clear
9:12 PM -7.8 °F - -12.3 °F 81% 30.38 in 10.0 mi Calm Calm - N/A   Clear
9:32 PM -6.9 °F -17.9 °F -11.2 °F 81% 30.38 in 10.0 mi SSE 4.6 mph - N/A   Clear
9:52 PM -7.1 °F - -11.6 °F 81% 30.38 in 10.0 mi Calm Calm - N/A   Scattered Clouds
10:12 PM -6.9 °F -15.7 °F -11.4 °F 81% 30.37 in 10.0 mi SSE 3.5 mph - N/A   Mostly Cloudy
10:33 PM -6.0 °F -21.5 °F -10.5 °F 81% 30.36 in 10.0 mi SSE 8.1 mph - N/A   Overcast
10:52 PM -5.4 °F -23.0 °F -10.3 °F 80% 30.36 in 10.0 mi SE 10.4 mph - N/A   Overcast
11:12 PM -5.1 °F -21.5 °F -9.6 °F 81% 30.35 in 10.0 mi SSE 9.2 mph - N/A   Overcast
11:33 PM -4.2 °F -18.0 °F -8.7 °F 81% 30.34 in 10.0 mi SSE 6.9 mph - N/A   Overcast
11:52 PM -3.6 °F -18.6 °F -8.5 °F 80% 30.33 in 10.0 mi SE 8.1 mph - N/A   Overcast